User: anonymous   Login
Location: Unspecified
(0.0000°N, 0.0000°E)
Time: 23:17:21
(UTC+00:00)
Language:

STARLINK-34864 - Orbit

View from above orbital plane
View from above orbital plane
View from above satellite
View from above satellite

Ground track
Ground track

The orbit is defined by the following mean orbital elements,

1 65330U          26145.34172118 +.00000000 +00000-0 +41830-3 0 00004
2 65330  53.1577 210.6286 0000920  68.0604 292.0494 15.30204035    00
Epoch (UTC): 25 May 2026 08:12:04
Eccentricity: 0.0000920
inclination: 53.1577°
perigee height: 475 km
apogee height: 476 km
right ascension of ascending node: 210.6286°
argument of perigee: 68.0604°
revolutions per day: 15.30204035
mean anomaly at epoch: 292.0494°

The dashed part of the orbit path shows where the satellite is in the earth's shadow,  

DLR